Location: Elk Forest
(39.5314°N, 75.8738°W)
Time: 16:28:36
(UTC-04:00)

Daily predictions for brighter satellites

Satellite Brightness Start Highest point End
(mag) Time Altitude Azimuth Time Altitude Azimuth Time Altitude Azimuth
Lacrosse 5 3.8 19:46:07 10° W 19:50:28 28° NNW 19:54:49 10° NNE
Cosmos 1833 Rocket 2.8 19:50:37 10° NNW 19:56:09 56° ENE 20:01:39 10° SE
GP-B 4.1 19:54:13 10° SE 19:57:57 27° E 20:01:42 10° NNE
Cosmos 2344 4.5 19:53:08 10° SW 20:00:38 55° NW 20:09:09 10° NNE
ATLAS 5 CENTAUR R/B 1.7 19:58:33 10° SSW 20:03:11 80° ESE 20:08:14 10° NE
CZ-2D R/B 4.0 20:01:16 10° SE 20:04:46 34° ENE 20:08:18 10° N
Cosmos 1805 3.5 20:02:58 10° SSW 20:06:52 74° W 20:10:47 10° N
Lacrosse 5 rocket 1.4 20:03:16 10° NW 20:07:08 51° NE 20:10:29 12° ESE
ALOS 2.3 20:02:44 10° SSE 20:07:24 88° E 20:12:06 10° NNW
Cosmos 372 Rocket 3.9 20:02:46 10° SSW 20:07:52 80° ESE 20:13:03 10° NNE
Cosmos 158 Rocket 4.0 20:02:51 10° NNW 20:08:00 65° ENE 20:13:15 10° SSE
Cosmos 2278 Rocket 4.0 20:04:21 10° SW 20:09:32 36° WNW 20:14:46 10° N
Resurs 01 Rocket 1.7 20:06:34 10° SSE 20:10:53 59° ENE 20:15:15 10° N
Cosmos 1733 3.5 20:11:06 10° SSE 20:14:45 43° E 20:18:27 10° NNE
CZ-4C R/B 3.4 20:11:33 10° SSE 20:14:52 17° ESE 20:18:22 10° ENE
Cosmos 1605 Rocket 4.4 20:09:45 10° SSW 20:16:00 70° W 20:22:23 10° N
USA 186 2.3 20:16:04 19° E 20:16:22 19° ENE 20:18:04 10° NNE
Cosmos 2251 Rocket 4.4 20:15:13 10° N 20:19:55 30° ENE 20:23:30 15° ESE
Helios 1B rocket 3.2 20:16:14 10° NE 20:19:55 31° E 20:23:34 10° SSE
Meteor 1-21 Rocket 4.3 20:14:27 10° N 20:20:22 84° E 20:26:17 10° S
BREEZE-M DEB (TANK) 4.3 20:19:22 10° NNW 20:20:45 14° NNE 20:22:20 10° NE
Cosmos 1269 Rocket 4.2 20:15:46 10° NNW 20:21:04 80° WSW 20:26:21 10° SSE
COSMOS 2487 2.8 20:17:37 10° NNW 20:21:11 70° WSW 20:24:43 10° S
Cosmos 2100 Rocket 4.1 20:15:44 10° SSE 20:21:52 56° E 20:28:05 10° NNE
Gblst 52 Del rocket 4.5 20:18:27 10° SSW 20:24:24 49° SE 20:29:47 10° ENE
Cosmos 1470 2.7 20:23:03 10° S 20:26:59 67° E 20:30:56 10° NNE
SAR-Lupe-4 4.0 20:27:03 15° SE 20:29:39 41° ENE 20:33:04 10° N
PSLV R/B 3.8 20:27:00 10° SW 20:29:53 34° SSE 20:31:00 26° ESE
Cosmos 1408 Rocket 3.6 20:28:52 10° N 20:33:23 88° W 20:37:49 10° S
H-2A R/B 3.2 20:31:35 10° S 20:35:28 65° W 20:39:25 10° NNW
TIMED 4.4 20:32:00 10° S 20:36:20 71° ESE 20:40:42 10° NNE
Cosmos 494 Rocket 4.4 20:33:09 10° N 20:38:03 43° ENE 20:40:57 22° SE
Spot 2 Rocket 3.7 20:33:49 10° S 20:38:55 77° WSW 20:44:03 10° NNW
OAO 2 Rocket 4.0 20:34:39 10° SW 20:39:25 38° SSE 20:41:53 24° ESE
Cosmos 2082 Rocket 2.8 20:35:10 10° NNW 20:40:43 56° WSW 20:46:13 10° S
Resurs 1-3 3.8 20:37:07 10° S 20:41:28 74° WSW 20:45:53 10° NNW
GPS 2-05 Rocket1 3.6 20:40:13 10° WSW 20:43:34 41° S 20:44:44 30° SE
Cosmos 1184 Rocket 2.9 20:44:30 10° N 20:47:48 52° ENE 20:48:38 40° SE
Cosmos 1802 Rocket 3.9 20:42:04 10° S 20:48:09 71° E 20:54:19 10° NNE
SAR-Lupe-1 4.0 20:46:27 27° SSE 20:48:14 63° ENE 20:51:47 10° N
Helios 1A 2.9 20:45:49 17° SSE 20:49:01 73° ENE 20:53:13 10° N
Cosmos 1842 Rocket 3.6 20:45:07 10° S 20:49:24 53° E 20:53:41 10° NNE
Cosmos 1340 Rocket 2.8 20:45:29 10° N 20:49:30 83° W 20:53:09 12° S
CZ-4B DEB 2.8 20:49:48 46° E 20:50:03 48° ENE 20:53:03 10° N
Cosmos 389 Rocket 2.8 20:52:51 42° E 20:52:51 42° E 20:56:05 10° NNE
SeaSat 1 3.1 20:50:47 10° S 20:55:34 54° WSW 21:00:26 10° NW
Meteor 1-16 Rocket 4.3 20:49:53 10° S 20:55:39 63° E 21:01:32 10° NNE
Envisat 3.0 20:54:15 24° SE 20:57:14 60° ENE 21:02:14 10° N
Cosmos 1356 Rocket 3.3 20:55:43 10° N 20:59:45 58° E 21:00:45 43° SE
Cosmos 1674 4.3 20:56:42 10° NNW 21:00:12 36° W 21:03:43 10° SSW
Cosmos 1271 Rocket 4.1 20:56:28 10° SSW 21:00:17 43° WNW 21:04:09 10° N
Cosmos 1459 Rocket 4.1 20:55:42 10° SSW 21:01:56 76° W 21:08:06 10° N
ISS -1.4 21:01:04 10° WNW 21:03:37 21° NNW 21:06:01 11° NNE
ERS-1 Rocket 3.6 21:03:10 34° E 21:03:58 36° ENE 21:08:33 10° N
Meteor 1-11 4.2 20:59:19 10° N 21:04:50 57° ENE 21:07:17 32° SE
Meteor 2-17 Rocket 4.3 20:58:51 10° S 21:04:59 81° E 21:11:09 10° N
SL-14 R/B 3.1 21:03:14 10° N 21:07:06 70° E 21:07:46 56° SE
Cosmos 2061 Rocket 4.3 21:02:44 10° SSW 21:09:07 73° W 21:15:35 10° N
Geosat 4.0 21:04:57 10° NNE 21:10:00 84° WNW 21:15:02 10° SSW
Cosmos 2173 Rocket 4.4 21:06:35 10° SSW 21:12:41 64° W 21:18:57 10° N
Cosmos 2233 Rocket 4.4 21:12:07 37° ESE 21:12:47 38° E 21:18:22 10° NNE
Cosmos 1626 4.1 21:14:16 10° NNE 21:15:35 18° NNE 21:15:35 18° NNE
Cosmos 1328 3.9 21:14:47 10° NNW 21:18:45 71° W 21:19:50 45° SSW
Cosmos 1864 Rocket 4.4 21:13:16 10° S 21:19:34 72° E 21:25:50 10° NNE
H-2A R/B 3.9 21:28:32 18° NE 21:28:32 18° NE 21:30:56 10° NNE
Cosmos 2369 Rocket 2.0 21:22:41 10° SSW 21:28:18 74° ESE 21:33:55 10° NNE
Meteor 2-1 Rocket 4.1 21:27:08 33° S 21:29:45 72° E 21:35:23 10° NNE
Cosmos 2221 3.6 21:33:23 35° NNE 21:33:23 35° NNE 21:36:03 10° NNE
Cosmos 2058 3.1 21:29:39 10° N 21:33:12 64° N 21:33:12 64° N
SPOT 5 3.7 21:40:47 41° NE 21:40:47 41° NE 21:45:00 10° N
Cosmos 1939 Rocket 3.6 21:40:21 48° SW 21:40:49 51° W 21:44:54 10° NNW
Cosmos 1943 Rocket 4.0 21:48:52 18° NE 21:48:52 18° NE 21:50:21 10° NNE
Lacrosse 5 rocket 3.6 21:43:41 10° W 21:45:54 15° WSW 21:46:14 15° SW
CZ-3B DEB 4.3 21:42:08 10° WNW 21:46:01 15° NNW 21:48:44 10° NNE
NOAA 11 4.3 21:49:56 60° NE 21:49:56 60° NE 21:54:55 10° N
Cosmos 2263 4.2 21:52:40 67° NE 21:52:40 67° NE 21:57:34 10° NNE
USA 215 3.1 21:46:17 10° NE 21:52:49 74° SE 21:59:20 10° SW
Cosmos 1725 Rocket 4.5 21:50:24 10° SSW 21:56:30 58° W 22:02:37 10° N
Cosmos 2151 4.3 21:57:02 10° NNW 22:00:54 35° W 22:00:57 35° W
CZ-4C R/B 2.5 21:57:24 10° SW 22:02:34 62° NW 22:08:27 10° NNE
MetOp-A 4.3 22:07:07 68° NNW 22:07:07 68° NNW 22:11:46 10° NNW
Cosmos 2346 Rocket 4.4 22:02:47 10° N 22:09:02 87° W 22:09:02 87° W
ARGOS 3.8 22:17:29 49° N 22:17:29 49° N 22:21:23 10° NNW
USA 267 4.1 22:24:10 36° NE 22:24:37 36° NNE 22:30:28 10° NW
H-2A R/B 4.0 23:09:11 26° NNW 23:09:11 26° NNW 23:11:28 10° NNW
ATLAS 3B R/B 4.3 23:20:37 28° NNE 23:20:37 28° NNE 23:23:42 10° NNE
Cosmos 1943 Rocket 4.3 23:30:17 21° NW 23:30:17 21° NW 23:33:25 10° N
USA 215 4.5 23:29:36 10° NE 23:36:09 36° NW 23:41:22 10° W
